HAZ2814 VVTS-ZGGG

Flight info

Callsign HAZ2814
Flight time N/A
Altitude 29000
Route PATMA5F PATMA Q2 SADAS Q7 MUMGA/K0865F350 Q1 DAN A1 IKELA/N0443F270 A1 BIGEX A461 IDUMA IDUMA9
Aircraft A321/M-SDE3FGHIRWY/LB1

Departure

Time 2026-05-05 11:20
Airport Tan Son Nhat International Airport (VVTS)

Arrival

Time N/A
Airport Guangzhou Baiyun International Airport (ZGGG)
Time Latitude Longitude Altitude Speed Heading
2026-05-05 11:03 10.81780 106.66436 42 ft 0 kts 162°
2026-05-05 11:09 10.81782 106.66435 41 ft 2 kts 162°
2026-05-05 11:09 10.81807 106.66427 39 ft 4 kts 162°
2026-05-05 11:10 10.81832 106.66418 40 ft 4 kts 168°
2026-05-05 11:10 10.81859 106.66417 40 ft 4 kts 195°
2026-05-05 11:10 10.81881 106.66429 39 ft 4 kts 233°
2026-05-05 11:10 10.81891 106.66448 37 ft 4 kts 249°
2026-05-05 11:11 10.81897 106.66464 39 ft 0 kts 249°
2026-05-05 11:12 10.81894 106.66458 42 ft 4 kts 247°
2026-05-05 11:13 10.81874 106.66405 42 ft 12 kts 249°
2026-05-05 11:13 10.81841 106.66317 42 ft 13 kts 249°
2026-05-05 11:13 10.81808 106.66229 42 ft 15 kts 249°
2026-05-05 11:13 10.81771 106.66132 40 ft 14 kts 249°
2026-05-05 11:14 10.81737 106.66041 41 ft 13 kts 249°
2026-05-05 11:14 10.81704 106.65957 41 ft 12 kts 249°
2026-05-05 11:14 10.81675 106.65878 40 ft 11 kts 249°
2026-05-05 11:14 10.81642 106.65793 39 ft 16 kts 249°
2026-05-05 11:15 10.81594 106.65666 40 ft 20 kts 249°
2026-05-05 11:15 10.81545 106.65535 40 ft 19 kts 249°
2026-05-05 11:15 10.81498 106.65410 40 ft 18 kts 249°
2026-05-05 11:15 10.81453 106.65292 38 ft 17 kts 249°
2026-05-05 11:16 10.81411 106.65180 39 ft 16 kts 249°
2026-05-05 11:16 10.81372 106.65076 39 ft 15 kts 249°
2026-05-05 11:16 10.81335 106.64979 38 ft 14 kts 248°
2026-05-05 11:16 10.81301 106.64889 39 ft 13 kts 249°
2026-05-05 11:17 10.81271 106.64806 39 ft 12 kts 250°
2026-05-05 11:17 10.81241 106.64727 39 ft 14 kts 249°
2026-05-05 11:17 10.81208 106.64615 38 ft 18 kts 268°
2026-05-05 11:17 10.81224 106.64494 38 ft 17 kts 279°
2026-05-05 11:18 10.81261 106.64401 37 ft 13 kts 321°
2026-05-05 11:18 10.81344 106.64366 37 ft 13 kts 340°
2026-05-05 11:18 10.81404 106.64394 36 ft 8 kts 62°
2026-05-05 11:18 10.81421 106.64438 38 ft 6 kts 70°
2026-05-05 11:19 10.81455 106.64529 38 ft 36 kts 69°
2026-05-05 11:19 10.81630 106.64989 41 ft 100 kts 69°
2026-05-05 11:19 10.81936 106.65805 44 ft 147 kts 69°
2026-05-05 11:19 10.82356 106.66909 117 ft 177 kts 67°
2026-05-05 11:20 10.82821 106.68054 667 ft 175 kts 67°
2026-05-05 11:20 10.83308 106.69179 1250 ft 173 kts 69°
2026-05-05 11:20 10.83787 106.70302 1808 ft 172 kts 70°
2026-05-05 11:20 10.84259 106.71429 2247 ft 174 kts 70°
2026-05-05 11:21 10.84725 106.72555 2710 ft 173 kts 70°
2026-05-05 11:21 10.85185 106.73672 3119 ft 175 kts 69°
2026-05-05 11:21 10.85670 106.74854 3364 ft 188 kts 69°
2026-05-05 11:21 10.86276 106.76105 3466 ft 209 kts 56°
2026-05-05 11:22 10.87350 106.77190 3637 ft 228 kts 36°
2026-05-05 11:22 10.88817 106.78002 3755 ft 254 kts 29°
2026-05-05 11:22 10.90410 106.78916 4157 ft 268 kts 31°
2026-05-05 11:22 10.92031 106.79888 4845 ft 272 kts 31°
2026-05-05 11:23 10.93663 106.80876 5576 ft 273 kts 31°
2026-05-05 11:23 10.95304 106.81869 6295 ft 275 kts 31°
2026-05-05 11:23 10.96959 106.82866 6958 ft 278 kts 31°
2026-05-05 11:23 10.98611 106.83855 7601 ft 281 kts 31°
2026-05-05 11:24 11.00307 106.84866 8215 ft 284 kts 31°
2026-05-05 11:24 11.01099 106.85338 8506 ft 286 kts 31°
2026-05-05 11:24 11.02632 106.86248 9061 ft 289 kts 31°
2026-05-05 11:24 11.04398 106.87296 9692 ft 292 kts 32°
2026-05-05 11:25 11.06150 106.88337 10061 ft 304 kts 32°
2026-05-05 11:25 11.08034 106.89459 10170 ft 324 kts 31°
2026-05-05 11:25 11.10038 106.90653 10301 ft 343 kts 31°
2026-05-05 11:25 11.12151 106.91912 10420 ft 361 kts 31°
2026-05-05 11:26 11.14363 106.93230 10566 ft 376 kts 31°
2026-05-05 11:26 11.16645 106.94588 10932 ft 383 kts 31°
2026-05-05 11:26 11.18962 106.95963 11408 ft 387 kts 31°
2026-05-05 11:26 11.21295 106.97348 11903 ft 390 kts 31°
2026-05-05 11:27 11.23652 106.98749 12393 ft 393 kts 31°
2026-05-05 11:27 11.26025 107.00159 12882 ft 397 kts 31°
2026-05-05 11:27 11.28418 107.01584 13364 ft 400 kts 31°
2026-05-05 11:27 11.30825 107.03021 13795 ft 403 kts 31°
2026-05-05 11:28 11.33253 107.04472 14194 ft 406 kts 31°
2026-05-05 11:28 11.35679 107.05947 14600 ft 407 kts 34°
2026-05-05 11:28 11.37975 107.07654 15001 ft 409 kts 38°
2026-05-05 11:28 11.40259 107.09396 15397 ft 412 kts 38°
2026-05-05 11:29 11.42559 107.11152 15781 ft 414 kts 38°
2026-05-05 11:29 11.44872 107.12919 16162 ft 417 kts 38°
2026-05-05 11:29 11.47197 107.14697 16538 ft 419 kts 38°
2026-05-05 11:29 11.49538 107.16486 16905 ft 422 kts 38°
2026-05-05 11:30 11.51893 107.18285 17273 ft 424 kts 37°
2026-05-05 11:30 11.54263 107.20097 17604 ft 428 kts 37°
2026-05-05 11:30 11.56654 107.21926 17935 ft 431 kts 37°
2026-05-05 11:30 11.59059 107.23764 18253 ft 434 kts 37°
2026-05-05 11:31 11.61480 107.25614 18546 ft 436 kts 37°
2026-05-05 11:31 11.63907 107.27472 18855 ft 438 kts 37°
2026-05-05 11:31 11.66346 107.29341 19170 ft 439 kts 38°
2026-05-05 11:31 11.68794 107.31219 19477 ft 441 kts 37°
2026-05-05 11:32 11.71251 107.33102 19799 ft 443 kts 37°
2026-05-05 11:32 11.73721 107.34994 20097 ft 445 kts 37°
2026-05-05 11:32 11.76200 107.36893 20409 ft 447 kts 37°
2026-05-05 11:32 11.78690 107.38798 20714 ft 448 kts 37°
2026-05-05 11:33 11.81191 107.40712 21010 ft 450 kts 37°
2026-05-05 11:33 11.83698 107.42634 21315 ft 452 kts 37°
2026-05-05 11:33 11.86215 107.44565 21604 ft 453 kts 37°
2026-05-05 11:33 11.88744 107.46500 21902 ft 455 kts 37°
2026-05-05 11:34 11.91277 107.48438 22187 ft 457 kts 37°
2026-05-05 11:34 11.93825 107.50389 22464 ft 458 kts 37°
2026-05-05 11:34 11.96378 107.52348 22732 ft 460 kts 37°
2026-05-05 11:34 11.98941 107.54316 23000 ft 462 kts 37°
2026-05-05 11:35 12.01516 107.56294 23250 ft 464 kts 37°
2026-05-05 11:35 12.04102 107.58278 23504 ft 465 kts 37°
2026-05-05 11:35 12.06695 107.60266 23707 ft 467 kts 37°
2026-05-05 11:35 12.09298 107.62262 23921 ft 469 kts 37°
2026-05-05 11:36 12.11912 107.64271 24126 ft 470 kts 37°
2026-05-05 11:36 12.14528 107.66285 24324 ft 472 kts 37°
2026-05-05 11:36 12.17152 107.68305 24520 ft 473 kts 37°
2026-05-05 11:36 12.19787 107.70335 24703 ft 475 kts 37°
2026-05-05 11:37 12.22431 107.72370 24896 ft 477 kts 37°
2026-05-05 11:37 12.25087 107.74412 25099 ft 478 kts 37°
2026-05-05 11:37 12.27747 107.76455 25337 ft 479 kts 37°
2026-05-05 11:37 12.30501 107.78371 25552 ft 480 kts 30°
2026-05-05 11:38 12.33520 107.79819 25758 ft 481 kts 20°
2026-05-05 11:38 12.36740 107.80745 25975 ft 482 kts 11°
2026-05-05 11:38 12.40074 107.81130 26170 ft 483 kts
2026-05-05 11:38 12.43436 107.81196 26370 ft 484 kts
2026-05-05 11:39 12.46806 107.81260 26571 ft 485 kts
2026-05-05 11:39 12.50173 107.81328 26823 ft 484 kts
2026-05-05 11:39 12.53537 107.81398 27092 ft 483 kts
2026-05-05 11:39 12.56889 107.81464 27417 ft 480 kts
2026-05-05 11:40 12.60226 107.81527 27699 ft 479 kts
2026-05-05 11:40 12.63561 107.81591 27947 ft 479 kts
2026-05-05 11:40 12.66888 107.81656 28242 ft 477 kts
2026-05-05 11:40 12.70201 107.81723 28527 ft 476 kts
2026-05-05 11:41 12.73513 107.81791 28773 ft 476 kts
2026-05-05 11:41 12.80090 107.81916 28885 ft 468 kts
2026-05-05 11:42 12.86593 107.82043 28884 ft 467 kts
2026-05-05 11:42 12.93094 107.82176 28884 ft 468 kts
2026-05-05 11:43 12.99607 107.82307 28884 ft 468 kts
2026-05-05 11:43 13.05015 107.82412 28877 ft 468 kts
2026-05-05 11:44 13.11523 107.82540 28872 ft 468 kts
2026-05-05 11:44 13.19087 107.82692 28873 ft 468 kts
2026-05-05 11:45 13.25596 107.82824 28872 ft 468 kts 359°
2026-05-05 11:45 13.31040 107.83198 28870 ft 470 kts
2026-05-05 11:46 13.37216 107.85408 28869 ft 473 kts 22°
2026-05-05 11:46 13.43193 107.88270 28880 ft 474 kts 23°
2026-05-05 11:47 13.49181 107.91117 28891 ft 474 kts 22°
2026-05-05 11:47 13.55169 107.93963 28901 ft 474 kts 24°
2026-05-05 11:48 13.64161 107.98240 28891 ft 475 kts 23°
2026-05-05 11:48 13.70165 108.01101 28903 ft 476 kts 24°
2026-05-05 11:49 13.76169 108.03977 28911 ft 476 kts 24°
2026-05-05 11:49 13.82178 108.06846 28927 ft 476 kts 24°
2026-05-05 11:50 13.88190 108.09715 28930 ft 476 kts 23°
2026-05-05 11:50 13.94202 108.12584 28919 ft 477 kts 24°
2026-05-05 11:51 14.00390 108.14966 28924 ft 475 kts 11°
2026-05-05 11:51 14.06941 108.15507 28925 ft 473 kts 359°
2026-05-05 11:52 14.13526 108.15627 28937 ft 474 kts
2026-05-05 11:52 14.20120 108.15778 28940 ft 474 kts
2026-05-05 11:53 14.26721 108.15932 28951 ft 474 kts 360°
2026-05-05 11:53 14.33322 108.16074 28964 ft 475 kts 360°
2026-05-05 11:54 14.39886 108.16221 28965 ft 475 kts 360°
2026-05-05 11:54 14.46542 108.16370 28962 ft 475 kts 360°
2026-05-05 11:55 14.53153 108.16514 28968 ft 475 kts 360°
2026-05-05 11:55 14.59766 108.16659 28975 ft 476 kts 360°
2026-05-05 11:56 14.66368 108.16800 29154 ft 480 kts 360°
2026-05-05 11:56 14.69712 108.16872 29384 ft 481 kts 360°
2026-05-05 11:56 14.73060 108.16948 29630 ft 481 kts 360°
2026-05-05 11:57 14.76404 108.17026 29903 ft 481 kts 360°
2026-05-05 11:57 14.79745 108.17102 30148 ft 480 kts 360°
2026-05-05 11:57 14.83084 108.17176 30353 ft 480 kts 359°
2026-05-05 11:57 14.86418 108.17247 30582 ft 479 kts 359°
2026-05-05 11:58 14.89748 108.17318 30821 ft 479 kts 359°
2026-05-05 11:58 14.93081 108.17391 31037 ft 479 kts 360°
2026-05-05 11:58 14.96415 108.17461 31275 ft 479 kts 360°
2026-05-05 11:58 14.99744 108.17533 31527 ft 478 kts 360°
2026-05-05 11:59 15.03069 108.17609 31783 ft 478 kts 360°
2026-05-05 11:59 15.06389 108.17685 32039 ft 477 kts 360°
2026-05-05 11:59 15.09705 108.17758 32310 ft 476 kts 360°
2026-05-05 11:59 15.13012 108.17831 32597 ft 475 kts 360°
2026-05-05 12:00 15.16314 108.17904 32876 ft 474 kts 360°
2026-05-05 12:00 15.19613 108.17975 33139 ft 474 kts 359°
2026-05-05 12:00 15.22906 108.18042 33417 ft 473 kts 359°
2026-05-05 12:00 15.26190 108.18109 33697 ft 472 kts 359°
2026-05-05 12:01 15.29470 108.18177 33964 ft 471 kts 359°
2026-05-05 12:01 15.32743 108.18249 34177 ft 470 kts 359°
2026-05-05 12:01 15.36014 108.18322 34421 ft 469 kts 359°
2026-05-05 12:01 15.39275 108.18395 34669 ft 468 kts 359°
2026-05-05 12:02 15.42533 108.18468 34875 ft 468 kts 359°
2026-05-05 12:02 15.45789 108.18543 34922 ft 468 kts 359°
2026-05-05 12:02 15.52284 108.18688 34932 ft 467 kts 359°
2026-05-05 12:03 15.58775 108.18819 34921 ft 466 kts 359°
2026-05-05 12:03 15.65257 108.18952 34924 ft 466 kts 359°
2026-05-05 12:04 15.71733 108.19094 34912 ft 466 kts 359°
2026-05-05 12:04 15.78209 108.19235 34917 ft 466 kts 359°
2026-05-05 12:05 15.84681 108.19371 34919 ft 466 kts 359°
2026-05-05 12:05 15.91175 108.19514 34932 ft 466 kts 359°
2026-05-05 12:06 15.97656 108.19695 34937 ft 467 kts
2026-05-05 12:06 16.00856 108.20290 34939 ft 469 kts 14°
2026-05-05 12:06 16.03903 108.21534 34940 ft 472 kts 26°
2026-05-05 12:07 16.06667 108.23376 34926 ft 475 kts 37°
2026-05-05 12:07 16.09032 108.25757 34928 ft 478 kts 49°
2026-05-05 12:07 16.12803 108.31438 34920 ft 479 kts 54°
2026-05-05 12:08 16.16548 108.37238 34915 ft 480 kts 54°
2026-05-05 12:08 16.20251 108.42955 34909 ft 480 kts 54°
2026-05-05 12:09 16.23981 108.48726 34908 ft 481 kts 54°
2026-05-05 12:09 16.27711 108.54505 34906 ft 481 kts 54°
2026-05-05 12:10 16.31445 108.60295 34906 ft 482 kts 54°
2026-05-05 12:10 16.34572 108.65152 34910 ft 482 kts 54°
2026-05-05 12:11 16.38958 108.71860 34918 ft 482 kts 53°
2026-05-05 12:11 16.42806 108.77572 34916 ft 482 kts 52°
2026-05-05 12:12 16.46652 108.83292 34917 ft 482 kts 52°
2026-05-05 12:12 16.50466 108.89020 34925 ft 481 kts 52°
2026-05-05 12:13 16.54283 108.94760 34928 ft 481 kts 52°
2026-05-05 12:13 16.58092 109.00502 34933 ft 482 kts 53°
2026-05-05 12:14 16.61851 109.06290 34933 ft 482 kts 53°
2026-05-05 12:14 16.65596 109.12094 34939 ft 483 kts 53°
2026-05-05 12:15 16.69352 109.17895 34939 ft 483 kts 53°
2026-05-05 12:15 16.73110 109.23698 34942 ft 482 kts 53°
2026-05-05 12:16 16.76869 109.29496 34943 ft 482 kts 53°
2026-05-05 12:16 16.80624 109.35296 34948 ft 482 kts 53°
2026-05-05 12:17 16.84367 109.41103 34947 ft 482 kts 53°
2026-05-05 12:17 16.88123 109.46902 34950 ft 482 kts 53°
2026-05-05 12:18 16.91883 109.52694 34944 ft 482 kts 53°
2026-05-05 12:18 16.95638 109.58499 34942 ft 482 kts 53°
2026-05-05 12:19 16.99382 109.64306 34937 ft 482 kts 53°
2026-05-05 12:19 17.03122 109.70107 34939 ft 481 kts 53°
2026-05-05 12:20 17.06868 109.75908 34940 ft 481 kts 53°
2026-05-05 12:20 17.10609 109.81714 34944 ft 481 kts 53°
2026-05-05 12:21 17.13740 109.86579 34940 ft 481 kts 53°
2026-05-05 12:21 17.18081 109.93329 34943 ft 481 kts 53°
2026-05-05 12:22 17.21812 109.99134 34940 ft 481 kts 53°
2026-05-05 12:22 17.25537 110.04937 34933 ft 480 kts 53°
2026-05-05 12:23 17.29263 110.10737 34930 ft 481 kts 53°
2026-05-05 12:23 17.32987 110.16543 34935 ft 481 kts 53°
2026-05-05 12:24 17.36709 110.22364 34938 ft 481 kts 53°
2026-05-05 12:24 17.40422 110.28180 34939 ft 481 kts 53°
2026-05-05 12:25 17.43538 110.33048 34937 ft 480 kts 53°
2026-05-05 12:25 17.47298 110.38828 34938 ft 480 kts 52°
2026-05-05 12:26 17.51684 110.45528 34939 ft 480 kts 52°
2026-05-05 12:26 17.54833 110.50375 34937 ft 480 kts 52°
2026-05-05 12:27 17.59177 110.57116 34939 ft 480 kts 52°
2026-05-05 12:27 17.62315 110.61976 34940 ft 481 kts 52°
2026-05-05 12:28 17.66041 110.67730 34939 ft 481 kts 52°
2026-05-05 12:28 17.69795 110.73532 34941 ft 480 kts 52°
2026-05-05 12:29 17.73567 110.79376 34941 ft 480 kts 52°
2026-05-05 12:29 17.77287 110.85141 34938 ft 480 kts 52°
2026-05-05 12:30 17.81033 110.90950 34939 ft 481 kts 52°
2026-05-05 12:30 17.84777 110.96768 34945 ft 481 kts 52°
2026-05-05 12:31 17.88517 111.02588 34943 ft 481 kts 52°
2026-05-05 12:31 17.92261 111.08407 34942 ft 481 kts 52°
2026-05-05 12:32 17.96001 111.14226 34945 ft 481 kts 53°
2026-05-05 12:32 17.99737 111.20057 34948 ft 481 kts 53°
2026-05-05 12:33 18.03469 111.25893 34947 ft 481 kts 53°
2026-05-05 12:33 18.07213 111.31729 34945 ft 481 kts 53°
2026-05-05 12:34 18.10953 111.37566 34947 ft 482 kts 53°
2026-05-05 12:34 18.14690 111.43408 34952 ft 482 kts 53°
2026-05-05 12:35 18.18425 111.49269 34953 ft 482 kts 53°
2026-05-05 12:35 18.22153 111.55124 34955 ft 482 kts 53°
2026-05-05 12:36 18.25892 111.60993 34948 ft 483 kts 53°
2026-05-05 12:36 18.29641 111.66865 34947 ft 484 kts 53°
2026-05-05 12:37 18.33390 111.72752 34950 ft 484 kts 53°
2026-05-05 12:37 18.37139 111.78644 34952 ft 484 kts 53°
2026-05-05 12:38 18.40889 111.84540 34951 ft 484 kts 53°
2026-05-05 12:38 18.44630 111.90439 34950 ft 484 kts 53°
2026-05-05 12:39 18.48375 111.96341 34959 ft 485 kts 52°
2026-05-05 12:39 18.52109 112.02250 34950 ft 485 kts 52°
2026-05-05 12:40 18.55844 112.08163 34945 ft 484 kts 52°
2026-05-05 12:40 18.59585 112.14063 34946 ft 484 kts 52°
2026-05-05 12:41 18.63322 112.19976 34949 ft 484 kts 52°
2026-05-05 12:41 18.67571 112.25378 35046 ft 475 kts 37°
2026-05-05 12:42 18.72843 112.29493 35045 ft 471 kts 31°
2026-05-05 12:42 18.78180 112.33507 35044 ft 471 kts 31°
2026-05-05 12:43 18.83506 112.37540 35047 ft 471 kts 31°
2026-05-05 12:43 18.88839 112.41568 34911 ft 471 kts 31°
2026-05-05 12:44 18.94172 112.45590 34947 ft 471 kts 31°
2026-05-05 12:44 18.99529 112.49557 34949 ft 468 kts 26°
2026-05-05 12:45 19.05346 112.52488 34951 ft 463 kts 19°
2026-05-05 12:45 19.11256 112.55224 34950 ft 464 kts 19°
2026-05-05 12:46 19.17169 112.57967 34951 ft 464 kts 19°
2026-05-05 12:46 19.23072 112.60725 34951 ft 464 kts 19°
2026-05-05 12:47 19.28981 112.63479 34951 ft 464 kts 19°
2026-05-05 12:47 19.34895 112.66240 34955 ft 465 kts 19°
2026-05-05 12:48 19.40822 112.69009 34953 ft 466 kts 19°
2026-05-05 12:48 19.46757 112.71780 34956 ft 466 kts 19°
2026-05-05 12:49 19.52694 112.74558 34956 ft 466 kts 19°
2026-05-05 12:49 19.58628 112.77333 34956 ft 466 kts 19°
2026-05-05 12:50 19.64563 112.80113 34956 ft 467 kts 18°
2026-05-05 12:50 19.70503 112.82896 34958 ft 467 kts 18°
2026-05-05 12:51 19.76406 112.85668 34959 ft 467 kts 19°
2026-05-05 12:51 19.82348 112.88459 34961 ft 467 kts 18°
2026-05-05 12:52 19.88293 112.91251 34962 ft 467 kts 19°
2026-05-05 12:52 19.94238 112.94043 34957 ft 467 kts 18°
2026-05-05 12:53 20.00185 112.96845 34961 ft 467 kts 18°
2026-05-05 12:53 20.06129 112.99653 34964 ft 468 kts 18°
2026-05-05 12:54 20.15049 113.03861 34964 ft 467 kts 18°
2026-05-05 12:55 20.20994 113.06667 34976 ft 467 kts 18°
2026-05-05 12:55 20.26943 113.09475 34969 ft 468 kts 18°
2026-05-05 12:56 20.32890 113.12287 34961 ft 468 kts 18°
2026-05-05 12:56 20.38845 113.15101 34972 ft 468 kts 18°
2026-05-05 12:57 20.44799 113.17921 34961 ft 468 kts 18°
2026-05-05 12:57 20.50752 113.20741 34974 ft 468 kts 18°
2026-05-05 12:58 20.56704 113.23574 34971 ft 468 kts 18°
2026-05-05 12:58 20.62617 113.26384 34970 ft 468 kts 18°
2026-05-05 12:59 20.68567 113.29212 34972 ft 468 kts 18°
2026-05-05 12:59 20.74519 113.32039 34979 ft 468 kts 18°
2026-05-05 13:00 20.83443 113.36290 34977 ft 468 kts 18°
2026-05-05 13:01 20.95341 113.41981 34978 ft 469 kts 18°
2026-05-05 13:01 21.01301 113.44826 34978 ft 470 kts 18°
2026-05-05 13:02 21.07271 113.47676 34995 ft 470 kts 18°
2026-05-05 13:02 21.13228 113.50534 34980 ft 469 kts 18°
2026-05-05 13:03 21.19190 113.53388 34981 ft 469 kts 18°
2026-05-05 13:03 21.25148 113.56241 34978 ft 469 kts 18°
2026-05-05 13:04 21.31102 113.59100 34978 ft 469 kts 18°
2026-05-05 13:04 21.37055 113.61955 34988 ft 468 kts 18°
2026-05-05 13:05 21.42996 113.64808 34980 ft 467 kts 18°
2026-05-05 13:05 21.48889 113.67644 34979 ft 467 kts 18°
2026-05-05 13:06 21.54823 113.70495 34979 ft 467 kts 18°
2026-05-05 13:06 21.60756 113.73351 34977 ft 467 kts 18°
2026-05-05 13:07 21.66681 113.76216 35083 ft 467 kts 18°
2026-05-05 13:07 21.72609 113.79088 35088 ft 467 kts 18°
2026-05-05 13:08 21.78540 113.81952 35088 ft 467 kts 18°
2026-05-05 13:08 21.84471 113.84812 35095 ft 467 kts 18°
2026-05-05 13:09 21.90397 113.87679 35093 ft 467 kts 18°
2026-05-05 13:09 21.96326 113.90555 35124 ft 467 kts 18°
2026-05-05 13:10 22.02261 113.93431 35116 ft 468 kts 18°
2026-05-05 13:10 22.08200 113.96314 35110 ft 468 kts 18°
2026-05-05 13:11 22.14142 113.99194 35105 ft 468 kts 18°
2026-05-05 13:11 22.20085 114.02082 35132 ft 468 kts 18°
2026-05-05 13:12 22.25126 114.04032 35123 ft 461 kts
2026-05-05 13:12 22.32311 114.06316 35104 ft 460 kts
2026-05-05 13:13 22.38464 114.08254 35093 ft 461 kts
2026-05-05 13:13 22.43622 114.09893 35092 ft 462 kts
2026-05-05 13:14 22.49800 114.11731 35112 ft 455 kts
2026-05-05 13:14 22.55966 114.11727 35109 ft 436 kts 343°
2026-05-05 13:15 22.61583 114.09618 35100 ft 424 kts 329°
2026-05-05 13:15 22.66916 114.06864 35100 ft 425 kts 329°
2026-05-05 13:16 22.72276 114.04110 34595 ft 427 kts 329°
2026-05-05 13:16 22.74922 114.02752 34151 ft 426 kts 329°
2026-05-05 13:16 22.77603 114.01373 33664 ft 427 kts 329°
2026-05-05 13:17 22.80289 113.99989 33183 ft 428 kts 329°
2026-05-05 13:17 22.82977 113.98604 32682 ft 428 kts 329°
2026-05-05 13:17 22.85668 113.97217 32187 ft 428 kts 330°
2026-05-05 13:17 22.88387 113.95878 31701 ft 432 kts 334°
2026-05-05 13:18 22.91296 113.94971 31227 ft 440 kts 344°
2026-05-05 13:18 22.94346 113.94518 30759 ft 444 kts 347°
2026-05-05 13:18 22.97413 113.94108 30302 ft 445 kts 347°
2026-05-05 13:18 23.00490 113.93694 29809 ft 446 kts 347°
2026-05-05 13:19 23.03571 113.93274 29277 ft 447 kts 347°
2026-05-05 13:19 23.06667 113.92849 28747 ft 449 kts 347°
2026-05-05 13:19 23.09775 113.92418 28231 ft 452 kts 347°
2026-05-05 13:19 23.12869 113.91841 27736 ft 448 kts 339°
2026-05-05 13:20 23.15699 113.90515 27240 ft 442 kts 325°
2026-05-05 13:20 23.18110 113.88471 26753 ft 439 kts 312°
2026-05-05 13:20 23.19978 113.85861 26278 ft 439 kts 299°
2026-05-05 13:20 23.21209 113.82824 25801 ft 441 kts 286°
2026-05-05 13:21 23.21720 113.79531 25336 ft 445 kts 274°
2026-05-05 13:21 23.21864 113.76158 24882 ft 449 kts 274°
2026-05-05 13:21 23.21993 113.72757 24425 ft 452 kts 273°
2026-05-05 13:21 23.22115 113.69329 23981 ft 455 kts 273°
2026-05-05 13:22 23.22236 113.65885 23537 ft 457 kts 273°
2026-05-05 13:22 23.22361 113.62436 23015 ft 455 kts 273°
2026-05-05 13:22 23.22489 113.59008 22500 ft 452 kts 273°
2026-05-05 13:22 23.22618 113.55607 21997 ft 449 kts 273°
2026-05-05 13:23 23.22746 113.52225 21503 ft 446 kts 273°
2026-05-05 13:23 23.22870 113.48892 21014 ft 436 kts 273°
2026-05-05 13:23 23.22987 113.45637 20545 ft 425 kts 272°
2026-05-05 13:23 23.22743 113.42480 20067 ft 417 kts 256°
2026-05-05 13:24 23.21465 113.39688 19605 ft 414 kts 234°
2026-05-05 13:24 23.19297 113.37658 19147 ft 414 kts 212°
2026-05-05 13:24 23.16620 113.36543 18787 ft 409 kts 200°
2026-05-05 13:24 23.13910 113.35784 18673 ft 395 kts 197°
2026-05-05 13:25 23.11286 113.35186 18693 ft 376 kts 195°
2026-05-05 13:25 23.08778 113.34642 18696 ft 359 kts 196°